| time (UTC) | temp C | wind direction | speed KPH | gust KPH | rain 1hr cm | rain 24hr cm | rain mn cm | humidity % | barometer mb |
| 20260503044606 | 15 | 121 | 0.0 | 0.0 | 0.00 | 0.00 | 0.00 | 44 | 1015.1 |
| 20260503043102 | 16 | 347 | 0.0 | 4.8 | 0.00 | 0.00 | 0.00 | 42 | 1015.0 |
| 20260503041602 | 16 | 340 | 1.6 | 8.0 | 0.00 | 0.00 | 0.00 | 43 | 1014.9 |
| 20260503034602 | 17 | 298 | 3.2 | 8.0 | 0.00 | 0.00 | 0.00 | 40 | 1014.7 |
| 20260503033102 | 16 | 334 | 3.2 | 8.0 | 0.00 | 0.00 | 0.00 | 45 | 1014.6 |
| 20260503031602 | 16 | 300 | 8.0 | 9.7 | 0.00 | 0.00 | 0.00 | 45 | 1014.4 |
| 20260503024605 | 16 | 342 | 3.2 | 8.0 | 0.00 | 0.00 | 0.00 | 45 | 1014.2 |
| 20260503023101 | 17 | 325 | 1.6 | 6.4 | 0.00 | 0.00 | 0.00 | 43 | 1014.1 |
| 20260503021602 | 19 | 326 | 1.6 | 6.4 | 0.00 | 0.00 | 0.00 | 44 | 1014.2 |
| 20260503014602 | 24 | 274 | 1.6 | 3.2 | 0.00 | 0.00 | 0.00 | 37 | 1014.0 |
| 20260503013102 | 26 | 49 | 0.0 | 1.6 | 0.00 | 0.00 | 0.00 | 23 | 1014.0 |
| 20260503011602 | 25 | 113 | 0.0 | 1.6 | 0.00 | 0.00 | 0.00 | 19 | 1014.0 |
| 20260503004602 | 24 | 109 | 0.0 | 1.6 | 0.00 | 0.00 | 0.00 | 33 | 1014.2 |
| 20260503003107 | 25 | 134 | 0.0 | 1.6 | 0.00 | 0.00 | 0.00 | 35 | 1014.2 |
| 20260503001602 | 25 | 153 | 0.0 | 1.6 | 0.00 | 0.00 | 0.00 | 34 | 1014.1 |
| 20260502234602 | 26 | 122 | 0.0 | 4.8 | 0.00 | 0.00 | 0.00 | 27 | 1014.3 |
| 20260502233102 | 26 | 146 | 0.0 | 8.0 | 0.00 | 0.00 | 0.00 | 30 | 1014.4 |
| 20260502231602 | 26 | 152 | 3.2 | 6.4 | 0.00 | 0.00 | 0.00 | 32 | 1014.5 |
| 20260502224603 | 26 | 145 | 0.0 | 4.8 | 0.00 | 0.00 | 0.00 | 28 | 1014.9 |
| 20260502223103 | 26 | 142 | 0.0 | 8.0 | 0.00 | 0.00 | 0.00 | 27 | 1015.2 |
| 20260502221602 | 26 | 116 | 0.0 | 8.0 | 0.00 | 0.00 | 0.00 | 26 | 1015.4 |
| 20260502214606 | 25 | 142 | 0.0 | 6.4 | 0.00 | 0.00 | 0.00 | 29 | 1015.8 |
| 20260502213102 | 25 | 110 | 3.2 | 11.3 | 0.00 | 0.00 | 0.00 | 29 | 1016.0 |
| 20260502211603 | 25 | 125 | 1.6 | 8.0 | 0.00 | 0.00 | 0.00 | 30 | 1016.2 |
| 20260502204606 | 24 | 162 | 0.0 | 6.4 | 0.00 | 0.00 | 0.00 | 26 | 1016.4 |
| 20260502203102 | 24 | 108 | 3.2 | 9.7 | 0.00 | 0.00 | 0.00 | 29 | 1016.5 |
| 20260502201603 | 24 | 113 | 0.0 | 8.0 | 0.00 | 0.00 | 0.00 | 25 | 1016.6 |
| 20260502200104 | 23 | 201 | 3.2 | 6.4 | 0.00 | 0.00 | 0.00 | 26 | 1016.8 |
| 20260502194602 | 23 | 197 | 3.2 | 8.0 | 0.00 | 0.00 | 0.00 | 29 | 1016.9 |
| 20260502193102 | 23 | 198 | 3.2 | 6.4 | 0.00 | 0.00 | 0.00 | 30 | 1017.0 |
| 20260502191604 | 22 | 142 | 3.2 | 8.0 | 0.00 | 0.00 | 0.00 | 33 | 1017.2 |
| 20260502190107 | 22 | 115 | 1.6 | 6.4 | 0.00 | 0.00 | 0.00 | 34 | 1017.3 |
| 20260502184601 | 22 | 112 | 1.6 | 4.8 | 0.00 | 0.00 | 0.00 | 39 | 1017.5 |
| 20260502181603 | 20 | 238 | 0.0 | 3.2 | 0.00 | 0.00 | 0.00 | 43 | 1017.8 |
| 20260502170103 | 17 | 131 | 0.0 | 3.2 | 0.00 | 0.00 | 0.00 | 52 | 1018.1 |
| 20260502163102 | 16 | 153 | 0.0 | 1.6 | 0.00 | 0.00 | 0.00 | 56 | 1018.1 |
| 20260502161602 | 16 | 70 | 0.0 | 1.6 | 0.00 | 0.00 | 0.00 | 55 | 1018.2 |
| 20260502151602 | 13 | 137 | 0.0 | 1.6 | 0.00 | 0.00 | 0.00 | 63 | 1018.4 |
| 20260502150104 | 12 | 158 | 0.0 | 0.0 | 0.00 | 0.00 | 0.00 | 68 | 1018.3 |
| 20260502130106 | 3 | 341 | 0.0 | 1.6 | 0.00 | 0.00 | 0.00 | 83 | 1018.1 |
| 20260502123101 | 5 | 275 | 0.0 | 1.6 | 0.00 | 0.00 | 0.00 | 81 | 1018.0 |
| 20260502121602 | 5 | 278 | 0.0 | 1.6 | 0.00 | 0.00 | 0.00 | 78 | 1018.1 |
| 20260502114603 | 7 | 334 | 0.0 | 1.6 | 0.00 | 0.00 | 0.00 | 75 | 1018.1 |
| 20260502113104 | 6 | 338 | 0.0 | 1.6 | 0.00 | 0.00 | 0.00 | 77 | 1018.1 |
| 20260502111607 | 5 | 334 | 0.0 | 1.6 | 0.00 | 0.00 | 0.00 | 81 | 1018.1 |
| 20260502104602 | 5 | 350 | 0.0 | 0.0 | 0.00 | 0.00 | 0.00 | 81 | 1018.3 |
| 20260502103103 | 5 | 24 | 0.0 | 1.6 | 0.00 | 0.00 | 0.00 | 81 | 1018.3 |
| 20260502090105 | 7 | 343 | 0.0 | 0.0 | 0.00 | 0.00 | 0.00 | 70 | 1018.1 |
| 20260502080103 | 8 | 36 | 0.0 | 0.0 | 0.00 | 0.00 | 0.00 | 66 | 1018.4 |
| 20260502063105 | 10 | 314 | 0.0 | 1.6 | 0.00 | 0.00 | 0.00 | 60 | 1018.4 |
| 20260502061602 | 10 | 336 | 0.0 | 1.6 | 0.00 | 0.00 | 0.00 | 63 | 1018.4 |
| 20260502054602 | 10 | 345 | 0.0 | 1.6 | 0.00 | 0.00 | 0.00 | 60 | 1018.4 |
| 20260502053102 | 11 | 318 | 0.0 | 0.0 | 0.00 | 0.00 | 0.00 | 60 | 1018.4 |